Location: Kalberh�ni
(46.4610°N, 7.2453°E)
Time: 06:17:28
(UTC+00:00)

Cosmos 1802 Rocket - Pass Details

Date: 28 October 2021
Orbit: 955 x 1010 km, 82.9° (Epoch: 05 December)

Event Time Altitude Azimuth Distance (km) Brightness Sun altitude
Rises 04:59:21 0° 356° (N) 3,687 6.9 -12.2°
Reaches altitude 10° 05:02:04 10° 5° (N) 2,743 6.3 -11.7°
Maximum altitude 05:07:55 39° 73° (ENE) 1,453 5.6 -10.7°
Drops below altitude 10° 05:13:47 10° 141° (SE) 2,762 7.1 -9.7°
Sets 05:16:30 0° 149° (SSE) 3,714 7.7 -9.2°
